Location: Vancouver
(49.2500°N, 123.1330°W)
Time: 15:48:19
(UTC-07:00)

Iridium 21 - Visible Passes

Search period start: 25 October 2014 00:00
Search period end: 03 November 2014 23:00
Orbit: 776 x 779 km, 86.4° (Epoch: 24 October)

Date Brightness Start Highest point End Pass type
(mag) Time Alt. Az. Time Alt. Az. Time Alt. Az.
25 Oct 7.9 04:22:46 10° N 04:23:21 13° N 04:23:21 13° N visible
26 Oct 8.3 03:49:19 10° N 03:49:23 10° N 03:49:23 10° N visible
26 Oct 8.3 18:34:17 10° W 18:37:06 15° WNW 18:39:55 10° NW visible
29 Oct 8.6 18:36:36 10° WNW 18:37:30 10° WNW 18:38:24 10° NW visible
